Weather History for Pensacola NAS, FL

Change the Weather History Date:

Tuesday, November 6, 2012

  Actual Average Record
Temperature  
Mean Temperature 56 °F -  
Max Temperature 64 °F 72 °F 82 °F (2000)
Min Temperature 48 °F 53 °F 39 °F (2010)
Degree Days  
Heating Degree Days 9    
Growing Degree Days 6 (Base 50)    
Moisture  
Dew Point 49 °F    
Average Humidity 84    
Maximum Humidity 100    
Minimum Humidity 52    
Precipitation  
Precipitation 0.13 in - - ()
Sea Level Pressure  
Sea Level Pressure 29.97 in    
Wind  
Wind Speed 7 mph (NNW)    
Max Wind Speed 13 mph    
Max Gust Speed 18 mph    
Visibility 9 miles    
Events Rain    
Averages and records for this station are not official NWS values.
T = Trace of Precipitation, MM = Missing Value Source: NWS Daily Summary

Daily Weather History Graph

Daily Weather History Graph

Search for Another Location

Airport:

Trip Planner

Search our weather history database for the weather conditions in past years. The results will help you decide how hot, cold, wet, or windy it might be!

Date:

Astronomy

Nov. 06, 2012 Rise Set
Actual Time 6:07 AM CST 4:57 PM CST
Civil Twilight 5:42 AM CST 5:22 PM CST
Nautical Twilight 5:14 AM CST 5:51 PM CST
Astronomical Twilight 4:46 AM CST 6:19 PM CST
Moon 11:30 PM CST (11/6) 12:03 PM CST (11/6)
Length of Visible Light 11h 39m
Length of Day
10h 49m
Waning Gibbous, 53% of the Moon is Illuminated
Nov 6
Waning Gibbous
Nov 6
Last Quarter
Nov 13
New
Nov 20
First Quarter
Nov 28
Full

Hourly Weather History & Observations

Time (CST) Temp. Dew Point Humidity Pressure Visibility Wind Dir Wind Speed Gust Speed Precip Events Conditions
12:29 AM 57.2 °F 53.6 °F 88% 29.92 in 5.0 mi NNW 6.9 mph - 0.05 in Rain Heavy Rain
12:56 AM 55.9 °F 55.9 °F 100% 29.90 in 4.0 mi NW 5.8 mph - 0.13 in Rain Heavy Rain
1:56 AM 55.9 °F 55.0 °F 97% 29.90 in 10.0 mi North 5.8 mph - 0.00 in   Mostly Cloudy
2:41 AM 53.6 °F 53.6 °F 100% 29.90 in 10.0 mi North 5.8 mph - N/A   Partly Cloudy
2:56 AM 53.1 °F 53.1 °F 100% 29.91 in 10.0 mi North 5.8 mph - N/A   Partly Cloudy
3:56 AM 52.0 °F 51.1 °F 97% 29.93 in 10.0 mi NNW 8.1 mph - N/A   Clear
4:56 AM 51.1 °F 50.0 °F 96% 29.93 in 10.0 mi North 8.1 mph - N/A   Clear
5:17 AM 50.0 °F 50.0 °F 100% 29.94 in 9.0 mi NNW 4.6 mph - N/A   Partly Cloudy
5:31 AM 50.0 °F 50.0 °F 100% 29.94 in 10.0 mi North 8.1 mph - N/A   Mostly Cloudy
5:56 AM 50.0 °F 48.9 °F 96% 29.97 in 10.0 mi NNW 9.2 mph - N/A   Overcast
6:13 AM 50.0 °F 48.2 °F 94% 29.97 in 4.0 mi North 11.5 mph - N/A   Overcast
6:56 AM 50.0 °F 48.9 °F 96% 29.99 in 6.0 mi North 8.1 mph - N/A   Overcast
7:35 AM 51.8 °F 50.0 °F 94% 29.99 in 10.0 mi North 9.2 mph - N/A   Overcast
7:56 AM 51.1 °F 50.0 °F 96% 30.00 in 10.0 mi North 4.6 mph - N/A   Overcast
8:36 AM 51.8 °F 48.2 °F 88% 30.00 in 10.0 mi North 11.5 mph 18.4 mph N/A   Mostly Cloudy
8:56 AM 52.0 °F 48.0 °F 86% 30.01 in 10.0 mi North 6.9 mph - N/A   Mostly Cloudy
9:53 AM 55.4 °F 48.2 °F 77% 29.98 in 10.0 mi NW 9.2 mph - N/A   Scattered Clouds
9:56 AM 55.9 °F 48.9 °F 77% 29.99 in 10.0 mi NW 9.2 mph - N/A   Scattered Clouds
10:56 AM 60.1 °F 48.0 °F 64% 29.98 in 10.0 mi NNW 11.5 mph - N/A   Partly Cloudy
11:56 AM 64.0 °F 48.9 °F 58% 29.96 in 10.0 mi NNW 12.7 mph 17.3 mph N/A   Partly Cloudy
12:56 PM 64.9 °F 48.0 °F 54% 29.93 in 10.0 mi North 9.2 mph - N/A   Partly Cloudy
1:56 PM 64.9 °F 48.0 °F 54% 29.93 in 10.0 mi WNW 9.2 mph - N/A   Partly Cloudy
2:56 PM 64.9 °F 46.9 °F 52% 29.95 in 10.0 mi North 11.5 mph 18.4 mph N/A   Scattered Clouds
3:56 PM 61.0 °F 46.9 °F 60% 29.95 in 10.0 mi NNW 10.4 mph 18.4 mph N/A   Scattered Clouds
4:56 PM 57.0 °F 46.0 °F 67% 29.96 in 10.0 mi North 5.8 mph - N/A   Partly Cloudy
5:56 PM 54.0 °F 46.0 °F 75% 29.98 in 10.0 mi North 4.6 mph - N/A   Partly Cloudy
6:56 PM 53.1 °F 46.0 °F 77% 30.01 in 10.0 mi NNW 5.8 mph - N/A   Partly Cloudy
7:56 PM 51.1 °F 46.9 °F 86% 30.03 in 10.0 mi NW 3.5 mph - N/A   Clear
8:56 PM 50.0 °F 46.0 °F 86% 30.03 in 10.0 mi WNW 3.5 mph - N/A   Clear
9:56 PM 50.0 °F 45.0 °F 83% 30.03 in 10.0 mi NW 5.8 mph - N/A   Clear
10:56 PM 48.9 °F 46.0 °F 90% 30.02 in 10.0 mi NW 5.8 mph - N/A   Clear
11:56 PM 48.9 °F 46.0 °F 90% 30.02 in 10.0 mi NW 3.5 mph - N/A   Clear